Time,TemperatureF,DewpointF,PressureIn,WindDirection,WindDirectionDegrees,WindSpeedMPH,WindSpeedGustMPH,Humidity,HourlyPrecipIn,Conditions,Clouds,dailyrainin,SoftwareType,DateUTC
2013-09-06 00:01:00,57.1,56.0,30.24,WNW,292,3.3,5.0,96,0.00,,,0.00,Rainwise IP-100,2013-09-06 07:01:00,
2013-09-06 00:06:00,57.1,56.0,30.24,WNW,292,2.1,4.0,96,0.00,,,0.00,Rainwise IP-100,2013-09-06 07:06:00,
2013-09-06 00:11:00,57.1,56.0,30.24,SW,225,0.0,3.0,96,0.00,,,0.00,Rainwise IP-100,2013-09-06 07:11:00,
2013-09-06 00:16:00,56.9,56.0,30.24,NW,315,0.0,2.0,96,0.00,,,0.00,Rainwise IP-100,2013-09-06 07:16:00,
2013-09-06 00:21:00,56.9,56.0,30.23,SW,225,3.0,4.0,96,0.00,,,0.00,Rainwise IP-100,2013-09-06 07:21:00,
2013-09-06 00:26:00,56.9,56.0,30.24,SSW,202,0.0,2.0,96,0.00,,,0.00,Rainwise IP-100,2013-09-06 07:26:00,
2013-09-06 00:31:00,56.8,55.0,30.24,SSE,157,2.1,2.1,96,0.00,,,0.00,Rainwise IP-100,2013-09-06 07:31:00,
2013-09-06 00:36:00,56.7,55.0,30.24,ESE,112,4.0,4.0,96,0.00,,,0.00,Rainwise IP-100,2013-09-06 07:36:00,
2013-09-06 00:41:00,56.7,55.0,30.24,SSE,157,4.0,7.0,96,0.00,,,0.00,Rainwise IP-100,2013-09-06 07:41:00,
2013-09-06 00:46:00,56.7,55.0,30.24,WSW,247,5.8,8.0,96,0.00,,,0.00,Rainwise IP-100,2013-09-06 07:46:00,
2013-09-06 00:51:00,56.7,56.0,30.24,WSW,247,1.2,7.0,97,0.00,,,0.00,Rainwise IP-100,2013-09-06 07:51:00,
2013-09-06 00:56:00,56.7,56.0,30.24,SSE,157,0.0,5.0,97,0.00,,,0.00,Rainwise IP-100,2013-09-06 07:56:00,
2013-09-06 01:01:00,56.5,56.0,30.24,WNW,292,2.3,5.0,97,0.00,,,0.00,Rainwise IP-100,2013-09-06 08:01:00,
2013-09-06 01:06:00,56.4,56.0,30.24,SSW,202,1.9,6.0,97,0.00,,,0.00,Rainwise IP-100,2013-09-06 08:06:00,
2013-09-06 01:11:00,56.3,55.0,30.24,WNW,292,4.2,4.2,97,0.00,,,0.00,Rainwise IP-100,2013-09-06 08:11:00,
2013-09-06 01:16:00,56.3,55.0,30.23,WNW,292,2.6,5.0,97,0.00,,,0.00,Rainwise IP-100,2013-09-06 08:16:00,
2013-09-06 01:21:00,56.2,55.0,30.23,WNW,292,0.0,2.0,97,0.00,,,0.00,Rainwise IP-100,2013-09-06 08:21:00,
2013-09-06 01:26:00,56.1,55.0,30.24,SSW,202,0.0,2.0,97,0.00,,,0.00,Rainwise IP-100,2013-09-06 08:26:00,
2013-09-06 01:31:00,56.0,55.0,30.24,SSE,157,3.5,3.5,97,0.00,,,0.00,Rainwise IP-100,2013-09-06 08:31:00,
2013-09-06 01:36:00,56.0,55.0,30.24,East,90,3.7,3.7,98,0.00,,,0.00,Rainwise IP-100,2013-09-06 08:36:00,
2013-09-06 01:41:00,56.0,55.0,30.24,ENE,67,0.0,3.0,98,0.00,,,0.00,Rainwise IP-100,2013-09-06 08:41:00,
2013-09-06 01:46:00,55.9,55.0,30.23,ENE,67,2.3,2.3,98,0.00,,,0.00,Rainwise IP-100,2013-09-06 08:46:00,
2013-09-06 01:51:00,55.7,55.0,30.23,ENE,67,0.0,2.0,98,0.00,,,0.00,Rainwise IP-100,2013-09-06 08:51:00,
2013-09-06 01:56:00,55.7,55.0,30.23,SSW,202,0.0,3.0,98,0.00,,,0.00,Rainwise IP-100,2013-09-06 08:56:00,
2013-09-06 02:01:00,55.5,55.0,30.23,SSW,202,0.0,0.0,98,0.00,,,0.00,Rainwise IP-100,2013-09-06 09:01:00,
2013-09-06 02:06:00,55.4,54.0,30.23,South,180,0.0,2.0,98,0.00,,,0.00,Rainwise IP-100,2013-09-06 09:06:00,
2013-09-06 02:11:00,55.5,55.0,30.23,WSW,247,1.6,2.0,98,0.00,,,0.00,Rainwise IP-100,2013-09-06 09:11:00,
2013-09-06 02:15:00,55.7,55.0,30.22,WNW,292,3.7,4.0,98,0.00,,,0.00,Rainwise IP-100,2013-09-06 09:15:00,
2013-09-06 02:20:00,55.8,55.0,30.22,WNW,292,0.0,4.0,98,0.00,,,0.00,Rainwise IP-100,2013-09-06 09:20:00,
2013-09-06 02:25:00,55.7,55.0,30.22,SSW,202,0.0,2.0,98,0.00,,,0.00,Rainwise IP-100,2013-09-06 09:25:00,
2013-09-06 02:30:00,55.5,55.0,30.23,NNE,22,1.2,2.0,98,0.00,,,0.00,Rainwise IP-100,2013-09-06 09:30:00,
2013-09-06 02:35:00,55.3,54.0,30.22,NNE,22,0.0,3.0,98,0.00,,,0.00,Rainwise IP-100,2013-09-06 09:35:00,
2013-09-06 02:40:00,55.3,54.0,30.23,WSW,247,2.1,3.0,98,0.00,,,0.00,Rainwise IP-100,2013-09-06 09:40:00,
2013-09-06 02:45:00,55.7,55.0,30.22,West,270,2.8,4.0,98,0.00,,,0.00,Rainwise IP-100,2013-09-06 09:45:00,
2013-09-06 02:50:00,55.8,55.0,30.22,WNW,292,5.1,5.1,98,0.00,,,0.00,Rainwise IP-100,2013-09-06 09:50:00,
2013-09-06 02:55:00,55.8,55.0,30.23,West,270,5.1,5.1,97,0.00,,,0.00,Rainwise IP-100,2013-09-06 09:55:00,
2013-09-06 03:00:00,56.0,55.0,30.22,WNW,292,4.9,5.0,97,0.00,,,0.00,Rainwise IP-100,2013-09-06 10:00:00,
2013-09-06 03:05:00,56.1,55.0,30.22,WNW,292,4.9,5.0,97,0.00,,,0.00,Rainwise IP-100,2013-09-06 10:05:00,
2013-09-06 03:10:00,56.2,54.0,30.22,WNW,292,3.3,5.0,96,0.00,,,0.00,Rainwise IP-100,2013-09-06 10:10:00,
2013-09-06 03:15:00,56.3,54.0,30.22,WNW,292,3.0,6.0,96,0.00,,,0.00,Rainwise IP-100,2013-09-06 10:15:00,
2013-09-06 03:20:00,56.4,55.0,30.21,WNW,292,4.2,5.0,96,0.00,,,0.00,Rainwise IP-100,2013-09-06 10:20:00,
2013-09-06 03:25:00,56.4,55.0,30.22,WNW,292,1.6,4.0,96,0.00,,,0.00,Rainwise IP-100,2013-09-06 10:25:00,
2013-09-06 03:30:00,56.4,55.0,30.22,WSW,247,0.0,2.0,96,0.00,,,0.00,Rainwise IP-100,2013-09-06 10:30:00,
2013-09-06 03:35:00,56.4,55.0,30.21,West,270,3.5,3.5,96,0.00,,,0.00,Rainwise IP-100,2013-09-06 10:35:00,
2013-09-06 03:40:00,56.4,55.0,30.21,WNW,292,3.5,3.5,96,0.00,,,0.00,Rainwise IP-100,2013-09-06 10:40:00,
2013-09-06 03:45:00,56.3,54.0,30.21,WNW,292,3.7,5.0,96,0.00,,,0.00,Rainwise IP-100,2013-09-06 10:45:00,
2013-09-06 03:50:00,56.4,55.0,30.21,WNW,292,3.7,6.0,96,0.00,,,0.00,Rainwise IP-100,2013-09-06 10:50:00,
2013-09-06 03:55:00,56.5,55.0,30.20,WNW,292,5.8,5.8,95,0.00,,,0.00,Rainwise IP-100,2013-09-06 10:55:00,
2013-09-06 04:00:00,56.7,55.0,30.21,West,270,4.7,7.0,95,0.00,,,0.00,Rainwise IP-100,2013-09-06 11:00:00,
2013-09-06 04:05:00,56.9,55.0,30.21,WNW,292,4.4,7.0,94,0.00,,,0.00,Rainwise IP-100,2013-09-06 11:05:00,
2013-09-06 04:10:00,56.8,54.0,30.21,NW,315,3.3,7.0,94,0.00,,,0.00,Rainwise IP-100,2013-09-06 11:10:00,
2013-09-06 04:15:00,56.7,55.0,30.21,West,270,3.7,7.0,95,0.00,,,0.00,Rainwise IP-100,2013-09-06 11:15:00,
2013-09-06 04:20:00,56.5,55.0,30.21,WNW,292,4.7,7.0,95,0.00,,,0.00,Rainwise IP-100,2013-09-06 11:20:00,
2013-09-06 04:25:00,56.3,54.0,30.21,WSW,247,3.0,7.0,96,0.00,,,0.00,Rainwise IP-100,2013-09-06 11:25:00,
2013-09-06 04:30:00,56.2,54.0,30.21,WSW,247,3.3,7.0,96,0.00,,,0.00,Rainwise IP-100,2013-09-06 11:30:00,
2013-09-06 04:35:00,56.1,55.0,30.20,WNW,292,1.2,5.0,97,0.00,,,0.00,Rainwise IP-100,2013-09-06 11:35:00,
2013-09-06 04:40:00,55.9,55.0,30.20,WSW,247,2.1,5.0,97,0.00,,,0.00,Rainwise IP-100,2013-09-06 11:40:00,
2013-09-06 04:45:00,55.9,55.0,30.20,WSW,247,0.0,3.0,98,0.00,,,0.00,Rainwise IP-100,2013-09-06 11:45:00,
2013-09-06 04:50:00,55.8,55.0,30.20,WNW,292,1.4,2.0,98,0.00,,,0.00,Rainwise IP-100,2013-09-06 11:50:00,
2013-09-06 04:55:00,55.5,55.0,30.20,WNW,292,3.5,5.0,98,0.00,,,0.00,Rainwise IP-100,2013-09-06 11:55:00,
2013-09-06 05:00:00,55.9,55.0,30.20,WNW,292,2.1,5.0,97,0.00,,,0.00,Rainwise IP-100,2013-09-06 12:00:00,
2013-09-06 05:05:00,56.5,55.0,30.20,WNW,292,2.8,4.0,96,0.00,,,0.00,Rainwise IP-100,2013-09-06 12:05:00,
2013-09-06 05:10:00,56.9,56.0,30.20,WNW,292,2.1,4.0,95,0.00,,,0.00,Rainwise IP-100,2013-09-06 12:10:00,
2013-09-06 05:15:00,56.9,55.0,30.20,West,270,0.0,4.0,94,0.00,,,0.00,Rainwise IP-100,2013-09-06 12:15:00,
2013-09-06 05:20:00,56.9,55.0,30.20,West,270,3.3,3.3,94,0.00,,,0.00,Rainwise IP-100,2013-09-06 12:20:00,
2013-09-06 05:25:00,56.8,54.0,30.20,WNW,292,2.8,4.0,94,0.00,,,0.00,Rainwise IP-100,2013-09-06 12:25:00,
2013-09-06 05:30:00,56.8,54.0,30.20,NW,315,2.8,5.0,94,0.00,,,0.00,Rainwise IP-100,2013-09-06 12:30:00,
2013-09-06 05:35:00,56.7,54.0,30.20,NW,315,0.0,2.0,93,0.00,,,0.00,Rainwise IP-100,2013-09-06 12:35:00,
2013-09-06 05:40:00,56.4,54.0,30.20,NNW,337,1.2,2.0,93,0.00,,,0.00,Rainwise IP-100,2013-09-06 12:40:00,
2013-09-06 05:45:00,56.0,54.0,30.20,NNW,337,0.0,1.0,93,0.00,,,0.00,Rainwise IP-100,2013-09-06 12:45:00,
2013-09-06 05:50:00,55.7,54.0,30.20,NNW,337,0.0,0.0,94,0.00,,,0.00,Rainwise IP-100,2013-09-06 12:50:00,
2013-09-06 05:55:00,55.4,53.0,30.20,NNW,337,1.2,0.0,94,0.00,,,0.00,Rainwise IP-100,2013-09-06 12:55:00,
2013-09-06 05:57:00,55.3,53.0,30.20,NNW,337,0.0,1.0,94,0.00,,,0.00,Rainwise IP-100,2013-09-06 12:57:00,
2013-09-06 06:02:00,55.3,54.0,30.20,NNW,337,0.0,0.0,95,0.00,,,0.00,Rainwise IP-100,2013-09-06 13:02:00,
2013-09-06 06:07:00,55.6,54.0,30.20,NNW,337,0.0,0.0,96,0.00,,,0.00,Rainwise IP-100,2013-09-06 13:07:00,
2013-09-06 06:12:00,55.5,54.0,30.20,NNW,337,1.2,0.0,96,0.00,,,0.00,Rainwise IP-100,2013-09-06 13:12:00,
2013-09-06 06:17:00,55.3,54.0,30.20,NNW,337,0.0,1.0,96,0.00,,,0.00,Rainwise IP-100,2013-09-06 13:17:00,
2013-09-06 06:22:00,55.5,55.0,30.20,NNE,22,3.3,3.3,97,0.00,,,0.00,Rainwise IP-100,2013-09-06 13:22:00,
2013-09-06 06:27:00,56.5,56.0,30.20,NE,45,3.7,4.0,98,0.00,,,0.00,Rainwise IP-100,2013-09-06 13:27:00,
2013-09-06 06:32:00,57.2,56.0,30.20,NNE,22,0.0,4.0,98,0.00,,,0.00,Rainwise IP-100,2013-09-06 13:32:00,
2013-09-06 06:37:00,57.3,56.0,30.20,NNE,22,2.1,3.0,98,0.00,,,0.00,Rainwise IP-100,2013-09-06 13:37:00,
2013-09-06 06:42:00,57.5,57.0,30.21,NNE,22,1.9,4.0,97,0.00,,,0.00,Rainwise IP-100,2013-09-06 13:42:00,
2013-09-06 06:47:00,57.6,57.0,30.20,NE,45,2.8,3.0,97,0.00,,,0.00,Rainwise IP-100,2013-09-06 13:47:00,
2013-09-06 06:52:00,57.6,57.0,30.21,NE,45,0.0,3.0,97,0.00,,,0.00,Rainwise IP-100,2013-09-06 13:52:00,
2013-09-06 06:57:00,57.3,56.0,30.21,NE,45,0.0,0.0,97,0.00,,,0.00,Rainwise IP-100,2013-09-06 13:57:00,
2013-09-06 07:02:00,57.1,56.0,30.21,NE,45,2.8,3.0,97,0.00,,,0.00,Rainwise IP-100,2013-09-06 14:02:00,
2013-09-06 07:07:00,57.5,57.0,30.21,NE,45,2.6,4.0,97,0.00,,,0.00,Rainwise IP-100,2013-09-06 14:07:00,
2013-09-06 07:12:00,58.0,57.0,30.21,NE,45,1.9,4.0,96,0.00,,,0.00,Rainwise IP-100,2013-09-06 14:12:00,
2013-09-06 07:17:00,58.4,57.0,30.21,NNE,22,2.3,3.0,95,0.00,,,0.00,Rainwise IP-100,2013-09-06 14:17:00,
2013-09-06 07:22:00,58.9,57.0,30.22,NNE,22,2.6,4.0,94,0.00,,,0.00,Rainwise IP-100,2013-09-06 14:22:00,
2013-09-06 07:27:00,59.3,57.0,30.22,NNE,22,3.3,4.0,93,0.00,,,0.00,Rainwise IP-100,2013-09-06 14:27:00,
2013-09-06 07:32:00,59.7,57.0,30.22,NNW,337,2.1,5.0,92,0.00,,,0.00,Rainwise IP-100,2013-09-06 14:32:00,
2013-09-06 07:37:00,60.2,57.0,30.22,NNE,22,2.8,4.0,91,0.00,,,0.00,Rainwise IP-100,2013-09-06 14:37:00,
2013-09-06 07:42:00,60.5,57.0,30.22,ENE,67,0.0,5.0,90,0.00,,,0.00,Rainwise IP-100,2013-09-06 14:42:00,
2013-09-06 07:47:00,60.7,57.0,30.22,ENE,67,2.6,3.0,90,0.00,,,0.00,Rainwise IP-100,2013-09-06 14:47:00,
2013-09-06 07:52:00,61.2,57.0,30.22,NNE,22,2.3,3.0,89,0.00,,,0.00,Rainwise IP-100,2013-09-06 14:52:00,
2013-09-06 07:57:00,61.6,57.0,30.23,ESE,112,0.0,4.0,88,0.00,,,0.00,Rainwise IP-100,2013-09-06 14:57:00,
2013-09-06 08:02:00,62.0,58.0,30.22,NE,45,1.4,4.0,87,0.00,,,0.00,Rainwise IP-100,2013-09-06 15:02:00,
2013-09-06 08:07:00,62.3,58.0,30.22,East,90,0.0,4.0,87,0.00,,,0.00,Rainwise IP-100,2013-09-06 15:07:00,
2013-09-06 08:12:00,62.7,59.0,30.22,East,90,4.0,4.0,87,0.00,,,0.00,Rainwise IP-100,2013-09-06 15:12:00,
2013-09-06 08:17:00,63.1,59.0,30.22,ESE,112,1.6,4.0,86,0.00,,,0.00,Rainwise IP-100,2013-09-06 15:17:00,
2013-09-06 08:22:00,63.2,58.0,30.22,East,90,2.8,5.0,85,0.00,,,0.00,Rainwise IP-100,2013-09-06 15:22:00,
2013-09-06 08:27:00,63.3,58.0,30.22,East,90,1.9,5.0,85,0.00,,,0.00,Rainwise IP-100,2013-09-06 15:27:00,
2013-09-06 08:32:00,63.5,59.0,30.22,SE,135,2.3,4.0,85,0.00,,,0.00,Rainwise IP-100,2013-09-06 15:32:00,
2013-09-06 08:37:00,64.0,59.0,30.22,ESE,112,2.3,4.0,84,0.00,,,0.00,Rainwise IP-100,2013-09-06 15:37:00,
2013-09-06 08:42:00,64.4,59.0,30.22,ESE,112,2.1,4.0,84,0.00,,,0.00,Rainwise IP-100,2013-09-06 15:42:00,
2013-09-06 08:47:00,64.8,59.0,30.22,ESE,112,2.6,6.0,83,0.00,,,0.00,Rainwise IP-100,2013-09-06 15:47:00,
2013-09-06 08:52:00,65.2,59.0,30.22,ENE,67,2.1,5.0,82,0.00,,,0.00,Rainwise IP-100,2013-09-06 15:52:00,
2013-09-06 08:57:00,65.6,59.0,30.22,ESE,112,1.6,4.0,81,0.00,,,0.00,Rainwise IP-100,2013-09-06 15:57:00,
2013-09-06 09:02:00,66.1,59.0,30.22,East,90,4.2,4.2,80,0.00,,,0.00,Rainwise IP-100,2013-09-06 16:02:00,
2013-09-06 09:07:00,66.6,60.0,30.22,East,90,2.6,5.0,79,0.00,,,0.00,Rainwise IP-100,2013-09-06 16:07:00,
2013-09-06 09:12:00,66.9,60.0,30.22,ENE,67,1.9,5.0,78,0.00,,,0.00,Rainwise IP-100,2013-09-06 16:12:00,
2013-09-06 09:17:00,67.3,59.0,30.22,SE,135,1.9,5.0,76,0.00,,,0.00,Rainwise IP-100,2013-09-06 16:17:00,
2013-09-06 09:22:00,68.1,60.0,30.22,ESE,112,2.3,4.0,75,0.00,,,0.00,Rainwise IP-100,2013-09-06 16:22:00,
2013-09-06 09:28:00,68.9,60.0,30.22,NNE,22,4.0,5.0,74,0.00,,,0.00,Rainwise IP-100,2013-09-06 16:28:00,
2013-09-06 09:33:00,69.2,60.0,30.22,SE,135,2.8,7.0,73,0.00,,,0.00,Rainwise IP-100,2013-09-06 16:33:00,
2013-09-06 09:38:00,69.3,60.0,30.22,SE,135,1.2,6.0,72,0.00,,,0.00,Rainwise IP-100,2013-09-06 16:38:00,
2013-09-06 09:43:00,69.5,60.0,30.22,NE,45,4.9,5.0,71,0.00,,,0.00,Rainwise IP-100,2013-09-06 16:43:00,
2013-09-06 09:48:00,69.6,59.0,30.22,SE,135,2.8,5.0,70,0.00,,,0.00,Rainwise IP-100,2013-09-06 16:48:00,
2013-09-06 09:53:00,69.8,59.0,30.22,SE,135,2.1,6.0,70,0.00,,,0.00,Rainwise IP-100,2013-09-06 16:53:00,
2013-09-06 09:58:00,70.2,59.0,30.22,SE,135,2.1,4.0,69,0.00,,,0.00,Rainwise IP-100,2013-09-06 16:58:00,
2013-09-06 10:03:00,70.8,60.0,30.22,ESE,112,4.0,4.0,69,0.00,,,0.00,Rainwise IP-100,2013-09-06 17:03:00,
2013-09-06 10:08:00,71.5,60.0,30.21,ESE,112,2.3,5.0,68,0.00,,,0.00,Rainwise IP-100,2013-09-06 17:08:00,
2013-09-06 10:13:00,71.8,60.0,30.21,ESE,112,2.1,6.0,67,0.00,,,0.00,Rainwise IP-100,2013-09-06 17:13:00,
2013-09-06 10:18:00,71.9,60.0,30.22,SE,135,1.4,7.0,66,0.00,,,0.00,Rainwise IP-100,2013-09-06 17:18:00,
2013-09-06 10:23:00,72.5,60.0,30.22,SE,135,4.4,4.4,66,0.00,,,0.00,Rainwise IP-100,2013-09-06 17:23:00,
2013-09-06 10:28:00,73.4,60.0,30.22,NNE,22,3.7,5.0,64,0.00,,,0.00,Rainwise IP-100,2013-09-06 17:28:00,
2013-09-06 10:33:00,74.1,60.0,30.22,East,90,1.2,4.0,61,0.00,,,0.00,Rainwise IP-100,2013-09-06 17:33:00,
2013-09-06 10:38:00,74.8,59.0,30.22,ESE,112,1.2,5.0,59,0.00,,,0.00,Rainwise IP-100,2013-09-06 17:38:00,
2013-09-06 10:43:00,75.2,59.0,30.21,NNE,22,0.0,6.0,58,0.00,,,0.00,Rainwise IP-100,2013-09-06 17:43:00,
2013-09-06 10:48:00,75.3,59.0,30.21,ESE,112,5.4,7.0,57,0.00,,,0.00,Rainwise IP-100,2013-09-06 17:48:00,
2013-09-06 10:53:00,75.3,58.0,30.20,East,90,3.5,6.0,56,0.00,,,0.00,Rainwise IP-100,2013-09-06 17:53:00,
2013-09-06 10:58:00,76.0,58.0,30.21,East,90,3.5,4.0,54,0.00,,,0.00,Rainwise IP-100,2013-09-06 17:58:00,
2013-09-06 11:03:00,76.5,59.0,30.20,ENE,67,0.0,7.0,54,0.00,,,0.00,Rainwise IP-100,2013-09-06 18:03:00,
2013-09-06 11:08:00,76.6,58.0,30.20,NE,45,4.2,5.0,53,0.00,,,0.00,Rainwise IP-100,2013-09-06 18:08:00,
2013-09-06 11:13:00,76.7,57.0,30.20,ENE,67,2.6,9.0,51,0.00,,,0.00,Rainwise IP-100,2013-09-06 18:13:00,
2013-09-06 11:18:00,77.4,57.0,30.20,ESE,112,4.7,6.0,49,0.00,,,0.00,Rainwise IP-100,2013-09-06 18:18:00,
2013-09-06 11:23:00,78.3,57.0,30.20,ENE,67,2.1,5.0,48,0.00,,,0.00,Rainwise IP-100,2013-09-06 18:23:00,
2013-09-06 11:28:00,78.9,57.0,30.20,SSE,157,2.3,6.0,47,0.00,,,0.00,Rainwise IP-100,2013-09-06 18:28:00,
2013-09-06 11:33:00,79.6,57.0,30.20,ESE,112,0.0,4.0,46,0.00,,,0.00,Rainwise IP-100,2013-09-06 18:33:00,
2013-09-06 11:38:00,80.1,57.0,30.20,SSW,202,5.8,7.0,47,0.00,,,0.00,Rainwise IP-100,2013-09-06 18:38:00,
2013-09-06 11:43:00,79.1,59.0,30.20,NE,45,0.0,8.0,51,0.00,,,0.00,Rainwise IP-100,2013-09-06 18:43:00,
2013-09-06 11:48:00,78.3,60.0,30.20,West,270,2.1,4.0,54,0.00,,,0.00,Rainwise IP-100,2013-09-06 18:48:00,
2013-09-06 11:53:00,78.5,60.0,30.20,WNW,292,5.8,6.0,53,0.00,,,0.00,Rainwise IP-100,2013-09-06 18:53:00,
2013-09-06 11:58:00,78.2,60.0,30.20,NNE,22,1.2,6.0,53,0.00,,,0.00,Rainwise IP-100,2013-09-06 18:58:00,
2013-09-06 12:03:00,77.7,60.0,30.20,SW,225,5.8,7.0,54,0.00,,,0.00,Rainwise IP-100,2013-09-06 19:03:00,
2013-09-06 12:08:00,77.1,60.0,30.20,SW,225,7.5,7.5,55,0.00,,,0.00,Rainwise IP-100,2013-09-06 19:08:00,
2013-09-06 12:13:00,76.3,59.0,30.19,SW,225,0.0,9.0,56,0.00,,,0.00,Rainwise IP-100,2013-09-06 19:13:00,
2013-09-06 12:18:00,76.5,60.0,30.19,SSE,157,4.0,7.0,56,0.00,,,0.00,Rainwise IP-100,2013-09-06 19:18:00,
2013-09-06 12:23:00,77.2,60.0,30.19,WSW,247,2.8,9.0,55,0.00,,,0.00,Rainwise IP-100,2013-09-06 19:23:00,
2013-09-06 12:28:00,77.3,59.0,30.19,SSW,202,1.9,8.0,54,0.00,,,0.00,Rainwise IP-100,2013-09-06 19:28:00,
2013-09-06 12:33:00,77.2,59.0,30.19,SW,225,2.6,11.0,53,0.00,,,0.00,Rainwise IP-100,2013-09-06 19:33:00,
2013-09-06 12:38:00,76.9,59.0,30.19,SSW,202,7.2,11.0,53,0.00,,,0.00,Rainwise IP-100,2013-09-06 19:38:00,
2013-09-06 12:43:00,77.2,58.0,30.19,ESE,112,4.4,7.0,52,0.00,,,0.00,Rainwise IP-100,2013-09-06 19:43:00,
2013-09-06 12:48:00,77.9,58.0,30.18,WSW,247,1.6,11.0,51,0.00,,,0.00,Rainwise IP-100,2013-09-06 19:48:00,
2013-09-06 12:53:00,78.0,58.0,30.18,SE,135,5.8,10.0,51,0.00,,,0.00,Rainwise IP-100,2013-09-06 19:53:00,
2013-09-06 12:58:00,78.3,58.0,30.18,WNW,292,1.9,12.0,50,0.00,,,0.00,Rainwise IP-100,2013-09-06 19:58:00,
2013-09-06 13:03:00,79.2,57.0,30.18,West,270,3.5,9.0,48,0.00,,,0.00,Rainwise IP-100,2013-09-06 20:03:00,
2013-09-06 13:08:00,79.7,57.0,30.17,WNW,292,4.7,9.0,47,0.00,,,0.00,Rainwise IP-100,2013-09-06 20:08:00,
2013-09-06 13:13:00,79.6,57.0,30.17,WNW,292,6.5,8.0,46,0.00,,,0.00,Rainwise IP-100,2013-09-06 20:13:00,
2013-09-06 13:18:00,80.1,56.0,30.17,North,360,4.2,8.0,44,0.00,,,0.00,Rainwise IP-100,2013-09-06 20:18:00,
2013-09-06 13:23:00,81.2,56.0,30.16,East,90,3.0,7.0,43,0.00,,,0.00,Rainwise IP-100,2013-09-06 20:23:00,
2013-09-06 13:28:00,82.5,56.0,30.17,WNW,292,1.6,7.0,41,0.00,,,0.00,Rainwise IP-100,2013-09-06 20:28:00,
2013-09-06 13:33:00,82.6,56.0,30.17,West,270,4.0,11.0,41,0.00,,,0.00,Rainwise IP-100,2013-09-06 20:33:00,
2013-09-06 13:38:00,81.7,56.0,30.16,WNW,292,3.5,7.0,42,0.00,,,0.00,Rainwise IP-100,2013-09-06 20:38:00,
2013-09-06 13:43:00,81.4,56.0,30.16,WNW,292,5.4,8.0,42,0.00,,,0.00,Rainwise IP-100,2013-09-06 20:43:00,
2013-09-06 13:48:00,81.7,56.0,30.16,West,270,5.1,7.0,42,0.00,,,0.00,Rainwise IP-100,2013-09-06 20:48:00,
2013-09-06 13:53:00,81.4,55.0,30.16,NNE,22,1.4,12.0,41,0.00,,,0.00,Rainwise IP-100,2013-09-06 20:53:00,
2013-09-06 13:58:00,81.6,56.0,30.16,West,270,4.9,7.0,41,0.00,,,0.00,Rainwise IP-100,2013-09-06 20:58:00,
2013-09-06 14:03:00,81.9,56.0,30.16,West,270,3.5,8.0,41,0.00,,,0.00,Rainwise IP-100,2013-09-06 21:03:00,
2013-09-06 14:08:00,81.2,54.0,30.15,West,270,2.6,13.0,40,0.00,,,0.00,Rainwise IP-100,2013-09-06 21:08:00,
2013-09-06 14:13:00,81.2,55.0,30.15,WNW,292,5.6,5.6,41,0.00,,,0.00,Rainwise IP-100,2013-09-06 21:13:00,
2013-09-06 14:18:00,82.2,55.0,30.15,NNW,337,4.0,8.0,40,0.00,,,0.00,Rainwise IP-100,2013-09-06 21:18:00,
2013-09-06 14:23:00,82.9,55.0,30.15,WNW,292,2.8,6.0,39,0.00,,,0.00,Rainwise IP-100,2013-09-06 21:23:00,
2013-09-06 14:28:00,82.7,54.0,30.14,SE,135,3.0,10.0,38,0.00,,,0.00,Rainwise IP-100,2013-09-06 21:28:00,
2013-09-06 14:33:00,82.0,54.0,30.14,WSW,247,3.3,11.0,38,0.00,,,0.00,Rainwise IP-100,2013-09-06 21:33:00,
2013-09-06 14:38:00,81.8,54.0,30.14,SSE,157,1.4,7.0,39,0.00,,,0.00,Rainwise IP-100,2013-09-06 21:38:00,
2013-09-06 14:43:00,81.9,54.0,30.14,WNW,292,2.3,10.0,38,0.00,,,0.00,Rainwise IP-100,2013-09-06 21:43:00,
2013-09-06 14:48:00,81.9,54.0,30.14,WNW,292,3.7,9.0,38,0.00,,,0.00,Rainwise IP-100,2013-09-06 21:48:00,
2013-09-06 14:53:00,81.9,54.0,30.13,WNW,292,3.3,8.0,38,0.00,,,0.00,Rainwise IP-100,2013-09-06 21:53:00,
2013-09-06 14:58:00,81.8,53.0,30.13,SSE,157,1.6,9.0,38,0.00,,,0.00,Rainwise IP-100,2013-09-06 21:58:00,
2013-09-06 15:03:00,82.0,53.0,30.13,WNW,292,7.7,7.7,37,0.00,,,0.00,Rainwise IP-100,2013-09-06 22:03:00,
2013-09-06 15:08:00,81.9,53.0,30.13,WNW,292,5.4,13.0,37,0.00,,,0.00,Rainwise IP-100,2013-09-06 22:08:00,
2013-09-06 15:13:00,81.0,53.0,30.13,WNW,292,10.5,11.0,38,0.00,,,0.00,Rainwise IP-100,2013-09-06 22:13:00,
2013-09-06 15:18:00,80.4,53.0,30.13,WNW,292,9.6,14.0,38,0.00,,,0.00,Rainwise IP-100,2013-09-06 22:18:00,
2013-09-06 15:23:00,80.2,53.0,30.12,NW,315,10.3,14.0,38,0.00,,,0.00,Rainwise IP-100,2013-09-06 22:23:00,
2013-09-06 15:28:00,79.8,53.0,30.12,WNW,292,8.2,13.0,39,0.00,,,0.00,Rainwise IP-100,2013-09-06 22:28:00,
2013-09-06 15:33:00,79.4,53.0,30.12,NW,315,10.5,14.0,40,0.00,,,0.00,Rainwise IP-100,2013-09-06 22:33:00,
2013-09-06 15:38:00,79.3,53.0,30.12,WSW,247,6.1,16.0,40,0.00,,,0.00,Rainwise IP-100,2013-09-06 22:38:00,
2013-09-06 15:43:00,79.4,53.0,30.11,WNW,292,10.5,16.0,40,0.00,,,0.00,Rainwise IP-100,2013-09-06 22:43:00,
2013-09-06 15:48:00,79.7,53.0,30.12,WNW,292,8.6,14.0,40,0.00,,,0.00,Rainwise IP-100,2013-09-06 22:48:00,
2013-09-06 15:53:00,80.0,53.0,30.12,SSW,202,4.0,15.0,39,0.00,,,0.00,Rainwise IP-100,2013-09-06 22:53:00,
2013-09-06 15:58:00,80.0,53.0,30.11,WNW,292,11.4,15.0,39,0.00,,,0.00,Rainwise IP-100,2013-09-06 22:58:00,
2013-09-06 16:03:00,79.8,53.0,30.11,WNW,292,9.8,14.0,39,0.00,,,0.00,Rainwise IP-100,2013-09-06 23:03:00,
2013-09-06 16:08:00,79.5,53.0,30.11,WNW,292,8.6,17.0,39,0.00,,,0.00,Rainwise IP-100,2013-09-06 23:08:00,
2013-09-06 16:13:00,79.4,52.0,30.11,WNW,292,8.4,15.0,39,0.00,,,0.00,Rainwise IP-100,2013-09-06 23:13:00,
2013-09-06 16:18:00,79.1,52.0,30.11,NW,315,9.8,18.0,39,0.00,,,0.00,Rainwise IP-100,2013-09-06 23:18:00,
2013-09-06 16:23:00,78.9,52.0,30.10,WNW,292,5.4,17.0,39,0.00,,,0.00,Rainwise IP-100,2013-09-06 23:23:00,
2013-09-06 16:28:00,78.7,52.0,30.11,WNW,292,9.3,16.0,39,0.00,,,0.00,Rainwise IP-100,2013-09-06 23:28:00,
2013-09-06 16:33:00,78.5,52.0,30.10,WNW,292,11.4,15.0,39,0.00,,,0.00,Rainwise IP-100,2013-09-06 23:33:00,
2013-09-06 16:38:00,78.6,52.0,30.10,NW,315,7.0,14.0,39,0.00,,,0.00,Rainwise IP-100,2013-09-06 23:38:00,
2013-09-06 16:43:00,78.6,52.0,30.10,WNW,292,6.5,16.0,39,0.00,,,0.00,Rainwise IP-100,2013-09-06 23:43:00,
2013-09-06 16:48:00,78.4,51.0,30.10,WNW,292,15.9,18.0,39,0.00,,,0.00,Rainwise IP-100,2013-09-06 23:48:00,
2013-09-06 16:53:00,78.1,51.0,30.10,WNW,292,14.2,18.0,39,0.00,,,0.00,Rainwise IP-100,2013-09-06 23:53:00,
2013-09-06 16:58:00,77.7,50.0,30.10,NW,315,7.0,21.0,39,0.00,,,0.00,Rainwise IP-100,2013-09-06 23:58:00,
2013-09-06 17:03:00,77.5,50.0,30.09,NW,315,12.8,20.0,39,0.00,,,0.00,Rainwise IP-100,2013-09-07 00:03:00,
2013-09-06 17:08:00,77.4,50.0,30.09,WNW,292,13.8,19.0,39,0.00,,,0.00,Rainwise IP-100,2013-09-07 00:08:00,
2013-09-06 17:13:00,77.2,51.0,30.09,WSW,247,10.0,17.0,40,0.00,,,0.00,Rainwise IP-100,2013-09-07 00:13:00,
2013-09-06 17:18:00,77.1,51.0,30.09,WNW,292,12.1,21.0,40,0.00,,,0.00,Rainwise IP-100,2013-09-07 00:18:00,
2013-09-06 17:23:00,76.9,51.0,30.09,WNW,292,7.7,19.0,40,0.00,,,0.00,Rainwise IP-100,2013-09-07 00:23:00,
2013-09-06 17:28:00,76.6,50.0,30.09,NW,315,14.7,19.0,40,0.00,,,0.00,Rainwise IP-100,2013-09-07 00:28:00,
2013-09-06 17:33:00,76.4,50.0,30.09,NW,315,10.7,20.0,40,0.00,,,0.00,Rainwise IP-100,2013-09-07 00:33:00,
2013-09-06 17:38:00,76.3,50.0,30.08,West,270,13.8,19.0,40,0.00,,,0.00,Rainwise IP-100,2013-09-07 00:38:00,
2013-09-06 17:43:00,76.3,50.0,30.08,WNW,292,14.7,19.0,40,0.00,,,0.00,Rainwise IP-100,2013-09-07 00:43:00,
2013-09-06 17:48:00,76.2,49.0,30.08,NW,315,11.0,21.0,39,0.00,,,0.00,Rainwise IP-100,2013-09-07 00:48:00,
2013-09-06 17:53:00,75.9,50.0,30.08,WNW,292,10.5,18.0,40,0.00,,,0.00,Rainwise IP-100,2013-09-07 00:53:00,
2013-09-06 17:58:00,75.8,50.0,30.08,West,270,9.8,18.0,40,0.00,,,0.00,Rainwise IP-100,2013-09-07 00:58:00,
2013-09-06 18:03:00,75.9,50.0,30.08,WNW,292,6.5,18.0,40,0.00,,,0.00,Rainwise IP-100,2013-09-07 01:03:00,
2013-09-06 18:08:00,75.9,50.0,30.08,West,270,11.4,16.0,40,0.00,,,0.00,Rainwise IP-100,2013-09-07 01:08:00,
2013-09-06 18:13:00,75.9,50.0,30.09,WNW,292,7.0,16.0,40,0.00,,,0.00,Rainwise IP-100,2013-09-07 01:13:00,
2013-09-06 18:18:00,76.1,50.0,30.08,WSW,247,9.8,18.0,40,0.00,,,0.00,Rainwise IP-100,2013-09-07 01:18:00,
2013-09-06 18:23:00,76.1,49.0,30.08,West,270,6.8,17.0,39,0.00,,,0.00,Rainwise IP-100,2013-09-07 01:23:00,
2013-09-06 18:28:00,76.0,49.0,30.08,WNW,292,5.6,17.0,39,0.00,,,0.00,Rainwise IP-100,2013-09-07 01:28:00,
2013-09-06 18:33:00,75.9,50.0,30.08,NW,315,8.9,17.0,40,0.00,,,0.00,Rainwise IP-100,2013-09-07 01:33:00,
2013-09-06 18:38:00,75.8,50.0,30.08,WNW,292,7.7,13.0,40,0.00,,,0.00,Rainwise IP-100,2013-09-07 01:38:00,
2013-09-06 18:43:00,75.9,50.0,30.08,WNW,292,7.0,15.0,40,0.00,,,0.00,Rainwise IP-100,2013-09-07 01:43:00,
2013-09-06 18:48:00,75.8,50.0,30.08,WNW,292,7.0,19.0,40,0.00,,,0.00,Rainwise IP-100,2013-09-07 01:48:00,
2013-09-06 18:53:00,75.6,50.0,30.08,WNW,292,4.9,16.0,40,0.00,,,0.00,Rainwise IP-100,2013-09-07 01:53:00,
2013-09-06 18:58:00,75.3,49.0,30.08,WNW,292,10.7,14.0,40,0.00,,,0.00,Rainwise IP-100,2013-09-07 01:58:00,
2013-09-06 19:03:00,75.1,49.0,30.08,West,270,10.5,16.0,40,0.00,,,0.00,Rainwise IP-100,2013-09-07 02:03:00,
2013-09-06 19:08:00,75.1,49.0,30.08,WSW,247,6.5,15.0,40,0.00,,,0.00,Rainwise IP-100,2013-09-07 02:08:00,
2013-09-06 19:13:00,75.1,48.0,30.08,WNW,292,7.2,15.0,39,0.00,,,0.00,Rainwise IP-100,2013-09-07 02:13:00,
2013-09-06 19:18:00,75.2,48.0,30.08,WNW,292,5.4,15.0,39,0.00,,,0.00,Rainwise IP-100,2013-09-07 02:18:00,
2013-09-06 19:23:00,75.1,48.0,30.08,West,270,7.9,15.0,39,0.00,,,0.00,Rainwise IP-100,2013-09-07 02:23:00,
2013-09-06 19:28:00,75.2,47.0,30.08,WNW,292,14.2,17.0,38,0.00,,,0.00,Rainwise IP-100,2013-09-07 02:28:00,
2013-09-06 19:33:00,75.3,47.0,30.08,WNW,292,10.0,18.0,38,0.00,,,0.00,Rainwise IP-100,2013-09-07 02:33:00,
2013-09-06 19:38:00,75.2,47.0,30.07,WNW,292,9.3,16.0,38,0.00,,,0.00,Rainwise IP-100,2013-09-07 02:38:00,
2013-09-06 19:43:00,75.3,47.0,30.07,WNW,292,10.5,14.0,38,0.00,,,0.00,Rainwise IP-100,2013-09-07 02:43:00,
2013-09-06 19:48:00,75.6,48.0,30.07,WNW,292,9.8,15.0,38,0.00,,,0.00,Rainwise IP-100,2013-09-07 02:48:00,
2013-09-06 19:53:00,75.8,48.0,30.08,NW,315,3.0,9.0,38,0.00,,,0.00,Rainwise IP-100,2013-09-07 02:53:00,
2013-09-06 19:58:00,76.0,48.0,30.08,ENE,67,0.0,8.0,38,0.00,,,0.00,Rainwise IP-100,2013-09-07 02:58:00,
2013-09-06 20:03:00,75.7,48.0,30.08,East,90,2.8,5.0,38,0.00,,,0.00,Rainwise IP-100,2013-09-07 03:03:00,
2013-09-06 20:08:00,74.0,50.0,30.08,East,90,0.0,6.0,43,0.00,,,0.00,Rainwise IP-100,2013-09-07 03:08:00,
2013-09-06 20:13:00,71.6,51.0,30.09,SE,135,3.5,6.0,49,0.00,,,0.00,Rainwise IP-100,2013-09-07 03:13:00,
2013-09-06 20:18:00,69.7,52.0,30.09,South,180,3.5,5.0,53,0.00,,,0.00,Rainwise IP-100,2013-09-07 03:18:00,
2013-09-06 20:23:00,68.5,52.0,30.09,SSE,157,3.3,6.0,56,0.00,,,0.00,Rainwise IP-100,2013-09-07 03:23:00,
2013-09-06 20:28:00,67.8,52.0,30.09,SE,135,2.3,5.0,58,0.00,,,0.00,Rainwise IP-100,2013-09-07 03:28:00,
2013-09-06 20:33:00,67.2,53.0,30.09,ESE,112,2.6,5.0,60,0.00,,,0.00,Rainwise IP-100,2013-09-07 03:33:00,
2013-09-06 20:38:00,66.5,53.0,30.10,SSE,157,1.9,5.0,62,0.00,,,0.00,Rainwise IP-100,2013-09-07 03:38:00,
2013-09-06 20:43:00,66.1,53.0,30.10,ESE,112,2.8,4.0,63,0.00,,,0.00,Rainwise IP-100,2013-09-07 03:43:00,
2013-09-06 20:48:00,65.9,54.0,30.10,East,90,1.9,3.0,65,0.00,,,0.00,Rainwise IP-100,2013-09-07 03:48:00,
2013-09-06 20:53:00,65.7,53.0,30.10,ESE,112,1.2,4.0,65,0.00,,,0.00,Rainwise IP-100,2013-09-07 03:53:00,
2013-09-06 20:58:00,65.6,54.0,30.10,SE,135,1.2,3.0,66,0.00,,,0.00,Rainwise IP-100,2013-09-07 03:58:00,
2013-09-06 21:01:00,65.5,54.0,30.10,SE,135,0.0,1.0,66,0.00,,,0.00,Rainwise IP-100,2013-09-07 04:01:00,
2013-09-06 21:06:00,65.3,53.0,30.10,SE,135,1.6,1.6,66,0.00,,,0.00,Rainwise IP-100,2013-09-07 04:06:00,
2013-09-06 21:11:00,65.1,54.0,30.10,SE,135,0.0,1.0,67,0.00,,,0.00,Rainwise IP-100,2013-09-07 04:11:00,
2013-09-06 21:16:00,64.9,54.0,30.10,SSE,157,0.0,0.0,68,0.00,,,0.00,Rainwise IP-100,2013-09-07 04:16:00,
2013-09-06 21:21:00,64.7,53.0,30.10,SSE,157,0.0,1.0,68,0.00,,,0.00,Rainwise IP-100,2013-09-07 04:21:00,
2013-09-06 21:26:00,64.7,54.0,30.10,SSE,157,0.0,0.0,69,0.00,,,0.00,Rainwise IP-100,2013-09-07 04:26:00,
2013-09-06 21:31:00,64.7,54.0,30.10,SSE,157,0.0,0.0,69,0.00,,,0.00,Rainwise IP-100,2013-09-07 04:31:00,
2013-09-06 21:36:00,64.7,54.0,30.11,SSE,157,0.0,0.0,69,0.00,,,0.00,Rainwise IP-100,2013-09-07 04:36:00,
2013-09-06 21:41:00,64.7,54.0,30.10,SSE,157,0.0,0.0,70,0.00,,,0.00,Rainwise IP-100,2013-09-07 04:41:00,
2013-09-06 21:46:00,64.5,54.0,30.10,SSW,202,0.0,0.0,70,0.00,,,0.00,Rainwise IP-100,2013-09-07 04:46:00,
2013-09-06 21:51:00,64.4,54.0,30.10,SSW,202,0.0,0.0,70,0.00,,,0.00,Rainwise IP-100,2013-09-07 04:51:00,
2013-09-06 21:56:00,64.4,54.0,30.10,SSW,202,0.0,0.0,70,0.00,,,0.00,Rainwise IP-100,2013-09-07 04:56:00,
2013-09-06 22:01:00,64.2,54.0,30.10,SSW,202,0.0,0.0,71,0.00,,,0.00,Rainwise IP-100,2013-09-07 05:01:00,
2013-09-06 22:06:00,64.2,54.0,30.10,WSW,247,0.0,0.0,71,0.00,,,0.00,Rainwise IP-100,2013-09-07 05:06:00,
2013-09-06 22:11:00,64.6,53.0,30.10,WSW,247,0.0,0.0,67,0.00,,,0.00,Rainwise IP-100,2013-09-07 05:11:00,
2013-09-06 22:16:00,65.2,52.0,30.10,WSW,247,0.0,0.0,63,0.00,,,0.00,Rainwise IP-100,2013-09-07 05:16:00,
2013-09-06 22:21:00,66.1,52.0,30.10,WSW,247,0.0,0.0,61,0.00,,,0.00,Rainwise IP-100,2013-09-07 05:21:00,
2013-09-06 22:26:00,67.3,51.0,30.10,WSW,247,0.0,0.0,57,0.00,,,0.00,Rainwise IP-100,2013-09-07 05:26:00,
2013-09-06 22:31:00,68.1,51.0,30.10,WSW,247,0.0,0.0,55,0.00,,,0.00,Rainwise IP-100,2013-09-07 05:31:00,
2013-09-06 22:36:00,68.3,50.0,30.10,WSW,247,0.0,0.0,53,0.00,,,0.00,Rainwise IP-100,2013-09-07 05:36:00,
2013-09-06 22:41:00,68.6,50.0,30.10,WSW,247,0.0,0.0,53,0.00,,,0.00,Rainwise IP-100,2013-09-07 05:41:00,
2013-09-06 22:46:00,69.3,50.0,30.10,WSW,247,0.0,0.0,51,0.00,,,0.00,Rainwise IP-100,2013-09-07 05:46:00,
2013-09-06 22:51:00,70.2,50.0,30.10,WSW,247,0.0,1.0,49,0.00,,,0.00,Rainwise IP-100,2013-09-07 05:51:00,
2013-09-06 22:56:00,70.7,50.0,30.10,WSW,247,0.0,0.0,48,0.00,,,0.00,Rainwise IP-100,2013-09-07 05:56:00,
2013-09-06 23:01:00,70.2,50.0,30.10,WSW,247,0.0,0.0,48,0.00,,,0.00,Rainwise IP-100,2013-09-07 06:01:00,
2013-09-06 23:06:00,69.3,50.0,30.10,WSW,247,0.0,0.0,50,0.00,,,0.00,Rainwise IP-100,2013-09-07 06:06:00,
2013-09-06 23:11:00,69.3,50.0,30.10,WSW,247,0.0,0.0,50,0.00,,,0.00,Rainwise IP-100,2013-09-07 06:11:00,
2013-09-06 23:16:00,69.5,50.0,30.10,WSW,247,0.0,0.0,49,0.00,,,0.00,Rainwise IP-100,2013-09-07 06:16:00,
2013-09-06 23:21:00,69.0,50.0,30.10,WSW,247,0.0,0.0,50,0.00,,,0.00,Rainwise IP-100,2013-09-07 06:21:00,
2013-09-06 23:26:00,68.8,49.0,30.09,WSW,247,0.0,0.0,50,0.00,,,0.00,Rainwise IP-100,2013-09-07 06:26:00,
2013-09-06 23:31:00,68.8,49.0,30.10,WSW,247,0.0,0.0,50,0.00,,,0.00,Rainwise IP-100,2013-09-07 06:31:00,
2013-09-06 23:36:00,68.5,49.0,30.09,WSW,247,0.0,0.0,50,0.00,,,0.00,Rainwise IP-100,2013-09-07 06:36:00,
2013-09-06 23:41:00,68.4,49.0,30.10,WSW,247,0.0,0.0,50,0.00,,,0.00,Rainwise IP-100,2013-09-07 06:41:00,
2013-09-06 23:46:00,68.5,49.0,30.09,WSW,247,0.0,0.0,50,0.00,,,0.00,Rainwise IP-100,2013-09-07 06:46:00,
2013-09-06 23:51:00,68.7,48.0,30.10,WSW,247,0.0,0.0,49,0.00,,,0.00,Rainwise IP-100,2013-09-07 06:51:00,
2013-09-06 23:56:00,68.8,48.0,30.10,WSW,247,0.0,0.0,49,0.00,,,0.00,Rainwise IP-100,2013-09-07 06:56:00,